METEOR-M2 2

Last updated on Tue Sep 22 2026 00:02:53 GMT+0000 (Coordinated Universal Time)

1 44387U 19038A 26264.62166034 -.00000285 00000+0 -10317-3 0 9996 2 44387 98.9256 253.3771 0002350 90.2842 269.8606 14.24385957375022
UTC large
Height (km)
Speed (km/s)
/
Latitude / Longitude
Inclination (degrees)
Orbital Period (minutes)
Azimuth
Elevation
Range (km)
Doppler Factor

Next 0 passes for location: London (51.5072 / 0.1276)

No passes found over London.
METEOR-M2 2